DW1024 Weather Reports


Display with metric or nautical units.
time (UTC)temp
F
wind
direction
speed
MPH
gust
MPH
rain 1hr
in
rain 24hr
in
rain mn
in
humidity
%
barometer
mb
20260504221936 60 257 0.0 1.0 0.00 0.00 0.00 69 1012.4
20260504220438 61 257 0.0 2.0 0.00 0.00 0.00 69 1012.5
20260504214936 61 254 0.0 4.0 0.00 0.00 0.00 69 1012.9
20260504213433 62 203 1.0 7.0 0.00 0.00 0.00 68 1013.0
20260504211931 62 250 2.0 7.0 0.00 0.00 0.00 68 1013.1
20260504210433 62 268 3.0 11.0 0.00 0.00 0.00 67 1013.0
20260504204935 63 278 5.0 13.0 0.00 0.00 0.00 66 1013.4
20260504201930 64 229 5.0 11.0 0.00 0.00 0.00 62 1013.2
20260504200430 64 253 2.0 12.0 0.00 0.00 0.00 58 1013.1
20260504194933 65 240 0.0 2.0 0.00 0.00 0.00 55 1012.3
20260504193439 66 238 0.0 1.0 0.00 0.00 0.00 54 1012.2
20260504191945 67 235 0.0 2.0 0.00 0.00 0.00 53 1012.0
20260504190445 68 200 0.0 0.0 0.00 0.00 0.00 52 1012.0
20260504184946 69 200 0.0 0.0 0.00 0.00 0.00 50 1011.8
20260504183446 69 200 0.0 2.0 0.00 0.00 0.00 49 1011.8
20260504180431 70 41 0.0 2.0 0.00 0.00 0.00 48 1011.7
20260504174931 71 103 0.0 2.0 0.00 0.00 0.00 47 1011.7
20260504171930 71 169 1.0 3.0 0.00 0.00 0.00 46 1011.6
20260504170431 72 71 1.0 5.0 0.00 0.00 0.00 45 1011.6
20260504160430 74 46 2.0 8.0 0.00 0.00 0.00 43 1011.7
20260504140424 74 71 3.0 9.0 0.00 0.00 0.00 43 1012.2
20260504130422 74 51 4.0 9.0 0.00 0.00 0.00 43 1012.6
20260504110418 74 94 3.0 9.0 0.00 0.00 0.00 43 1014.0
20260504081916 70 63 2.0 8.0 0.00 0.00 0.00 46 1015.9
20260504080416 70 32 2.0 5.0 0.00 0.00 0.00 47 1016.1
20260504050412 55 211 0.0 2.0 0.00 0.00 0.00 74 1016.3
20260504044913 55 211 0.0 2.0 0.00 0.00 0.00 72 1016.3
20260504043416 55 211 0.0 1.0 0.00 0.00 0.00 70 1016.5
20260504041912 55 211 0.0 0.0 0.00 0.00 0.00 69 1016.4
20260504040411 55 211 0.0 1.0 0.00 0.00 0.00 68 1016.4
20260504034907 56 211 0.0 0.0 0.00 0.00 0.00 67 1016.5
20260504033411 56 211 0.0 1.0 0.00 0.00 0.00 66 1016.6
20260504030403 57 211 0.0 1.0 0.00 0.00 0.00 66 1016.7
20260504024905 57 211 0.0 0.0 0.00 0.00 0.00 65 1016.6
20260504023401 58 211 0.0 1.0 0.00 0.00 0.00 64 1016.6
20260504021901 58 211 1.0 3.0 0.00 0.00 0.00 64 1016.9
20260504020358 58 240 0.0 2.0 0.00 0.00 0.00 64 1016.8
20260504014901 59 224 0.0 3.0 0.00 0.00 0.00 63 1016.9
20260504013402 59 209 1.0 4.0 0.00 0.00 0.00 61 1016.9
20260504004859 60 261 1.0 4.0 0.00 0.00 0.00 58 1016.6
20260504003357 60 271 2.0 10.0 0.00 0.00 0.00 54 1016.6
20260504001858 61 286 3.0 10.0 0.00 0.00 0.00 54 1016.6
20260504000357 61 251 3.0 10.0 0.00 0.00 0.00 56 1016.4
20260503234858 60 313 4.0 10.0 0.00 0.00 0.00 58 1015.9
20260503233402 61 222 2.0 6.0 0.00 0.00 0.00 63 1015.8
20260503231854 60 285 1.0 4.0 0.00 0.00 0.00 62 1015.7
20260503230358 60 236 1.0 5.0 0.00 0.00 0.00 63 1015.4
20260503224855 59 258 1.0 9.0 0.00 0.00 0.00 63 1015.3
20260503223351 59 283 0.0 0.0 0.00 0.00 0.00 61 1015.2